Flag for USA

Past Weather in Knoxville, Tennessee, USA — Yesterday and Last 2 Weeks

Now
70 °F

Passing clouds.


Feels Like: 71 °F
Forecast: 94 / 69 °F
Wind: 5 mph from Northeast

Location: McGhee Tyson Airport

Current Time: Jul 15, 2020 at 8:50:59 am

Latest Report: Jul 15, 2020 at 7:53 am


Visibility: 10 mi

Pressure: 30.04 "Hg

Humidity: 79%

Dew Point: 63 °F

Location of KnoxvilleLocation

Past Weather in Knoxville — Graph

°F

Knoxville Temperature Yesterday

Maximum temperature yesterday: 92 °F (at 4:53 pm)
Minimum temperature yesterday: 65 °F (at 4:53 am)
Average temperature yesterday: 79 °F

High & Low Weather Summary for the Past Weeks

 TemperatureHumidityPressure
High92 °F (Jul 4, 4:53 pm)97% (Jul 2, 7:34 am)30.03 "Hg (Jul 2, 7:34 am)
Low65 °F (Jul 14, 4:53 am)22% (Jul 14, 4:53 pm)29.75 "Hg (Jul 12, 5:53 pm)
Average79 °F68%29.92 "Hg
* Reported Jun 30 6:53 am — Jul 15 6:53 am, Knoxville. Weather by CustomWeather, © 2020

Note: Actual official high and low records may vary slightly from our data, if they occured in-between our weather recording intervals... More about our weather records

Knoxville Weather History for the Previous 24 Hours

Scroll right to see more
 ConditionsComfort  
Time TempWeatherWind HumidityBarometerVisibility
6:53 am
Wed, Jul 15
68 °FPassing clouds.3 mph84%30.03 "Hg10 mi
5:53 am69 °FPassing clouds.6 mph76%30.02 "Hg10 mi
4:53 am68 °FClear.5 mph82%30.01 "Hg10 mi
3:53 am69 °FClear.No wind79%30.00 "Hg10 mi
2:53 am71 °FClear.No wind71%30.00 "Hg10 mi
1:53 am72 °FClear.No wind71%30.01 "Hg10 mi
12:53 am72 °FPassing clouds.3 mph73%30.02 "Hg10 mi
11:53 pm
Tue, Jul 14
75 °FPassing clouds.5 mph62%30.03 "Hg10 mi
10:53 pm77 °FPassing clouds.No wind60%30.02 "Hg10 mi
9:53 pm81 °FPassing clouds.3 mph47%30.00 "Hg10 mi
8:53 pm83 °FPassing clouds.5 mph43%29.99 "Hg10 mi
7:53 pm88 °FPassing clouds.9 mph35%29.97 "Hg10 mi
6:53 pm91 °FPassing clouds.7 mph28%29.97 "Hg10 mi
5:53 pm92 °FPassing clouds.3 mph28%29.98 "Hg10 mi
4:53 pm92 °FPassing clouds.7 mph22%29.98 "Hg10 mi
3:53 pm91 °FPassing clouds.9 mph30%29.98 "Hg10 mi
2:53 pm91 °FPassing clouds.3 mph28%29.98 "Hg10 mi
1:53 pm89 °FPassing clouds.5 mph35%29.99 "Hg10 mi
12:53 pm87 °FPassing clouds.6 mph39%30.01 "Hg10 mi
11:53 am85 °FPassing clouds.3 mph46%30.02 "Hg10 mi
10:53 am81 °FPassing clouds.5 mph56%30.02 "Hg10 mi
9:53 am77 °FPassing clouds.5 mph66%30.03 "Hg10 mi
8:53 am73 °FPassing clouds.5 mph71%30.03 "Hg10 mi
Weather by CustomWeather, © 2020

See weather overview